SL-8 DEB, 3749

Orbit data source: Space-Track

SL-8 DEB, 3749 is space debris in LEO originally from a launch on Mon, 15 Mar 1965 UTC launched from the Tyuratam Missile And Space Complex (TTMTR). Debris objects in space refer to the collection of defunct objects orbiting the Earth. Examples of debris include non-operational satellites, rocket bodies, and fragments generated from explosions, collisions, or faulty payload assembly.

Loading next visibility...
Identifier
3749, 1965-020EU
Orbit
LEO
Country
Flag of CISCIS
Related business
Manufacturer
Unknown
Mission
Spacecraft
Bus & Motor
Unknown
Mass
Unknown
Launch date (UTC)
1965-03-15 (61 years ago)
Launch vehicle
Unknown
Launch site
Tyuratam Missile And Space Complex (TTMTR)
Object type
Payload
Rocket body
Debris
Shape & HBR
Unknown shape, 0.1 m
Radar Cross Section
Small (<0.1 m²)

Expand to show TLE details & history
Last TLE update: 1 day ago

TLE from 1 day ago
0 SL-8 DEB
1 03749U 65020EU  25288.38322131  .00005408  00000-0  18803-2 0  9993
2 03749  56.1099 292.9205 0452201  15.3770 346.0440 13.91739437766558
Epoch: 2025-10-15T09:11Z
TLE epoch observation values (Epoch: 2025-10-15T09:11:50.321Z)
Latitude
0.00005°
Longitude
130.80278°
Altitude
604.209 km
Speed
7.722 km/s
True Right ascension
19h 31m 40s
True Declination
0° 00' 00"
Sunlit
Object was in daylight at epoch
Visualization orbit readout
Latitude
Unknown
Longitude
Unknown
Altitude
Unknown
Speed
Unknown
Apparent Right ascension
Unknown
Apparent Declination
Unknown
Sunlit
N/A
Visualization observer readout
Local Sidereal Time
09:08:39
Azimuth
Unknown
Elevation
Unknown
Doppler factor
Unknown
Orbital elements
Apogee altitude
1,252.471 km
Perigee altitude
592.214 km
Semi-major axis
7,300.479 km
Eccentricity
0.04522
Inclination
56.1099°
RAAN
292.9205°
Arg. of periapsis
15.377°
True anomaly
344.72202°
Mean anomaly
346.044°
Eccentric anomaly
345.39049°
Mean motion
3.47949 °/min
Orbital period
103.46 mins
BSTAR
0.0018803
Loading maneuver chart data...
Computing Atmospheric mass density...

Documentation

Showing up to 5 results
|